Overview Statistics Trail Chart Weather Telemetry Raw packets
 

This is the latest recevied weather packets stored in our database for station/object K4WCH. If no packets are shown the sender has not sent any weather packets the latest 10 day(s).

<< 99 100 101 102 103 104 105 >>
Time Temp. Humidity Pressure Rain* Wind** Luminosity Snow
1787917249 22.78° C 99% 1017.7 hPa 0 mm - 36 W/m² -
1787916949 22.78° C 99% 1017.8 hPa 0 mm - 32 W/m² -
1787916649 22.22° C 99% 1017.8 hPa 0 mm - 29 W/m² -
1787916343 22.22° C 99% 1017.6 hPa 0 mm - 25 W/m² -
1787916039 22.22° C 99% 1017.7 hPa 0 mm - 19 W/m² -
1787915734 22.22° C 99% 1017.7 hPa 0 mm - 14 W/m² -
1787915429 22.22° C 99% 1017.5 hPa 0 mm - 9 W/m² -
1787915129 22.22° C 99% 1017.4 hPa 0 mm - 6 W/m² -
1787914829 22.22° C 99% 1017.4 hPa 0 mm - 3 W/m² -
1787914533 22.22° C 99% 1017.2 hPa 0 mm - 1 W/m² -
1787914223 22.22° C 99% 1017.2 hPa 0 mm - 1 W/m² -
1787913923 22.22° C 99% 1017 hPa 0 mm - 0 W/m² -
1787913626 22.22° C 99% 1016.9 hPa 0 mm - 0 W/m² -
1787913321 22.22° C 99% 1016.9 hPa 0 mm - 0 W/m² -
1787913016 22.22° C 99% 1017.1 hPa 0 mm - 0 W/m² -
1787912715 22.22° C 99% 1017 hPa 0 mm - 0 W/m² -
1787912409 22.22° C 99% 1016.8 hPa 0 mm - 0 W/m² -
1787912109 22.22° C 99% 1017 hPa 0 mm - 0 W/m² -
1787911803 22.22° C 99% 1017 hPa 0 mm - 0 W/m² -
1787911498 22.22° C 99% 1016.9 hPa 0 mm - 0 W/m² -
1787911196 22.22° C 99% 1016.9 hPa 0 mm - 0 W/m² -
1787910894 22.22° C 99% 1016.9 hPa 0 mm - 0 W/m² -
1787910590 22.22° C 99% 1016.8 hPa 0 mm - 0 W/m² -
1787910285 22.22° C 99% 1016.7 hPa 0 mm - 0 W/m² -
1787909985 22.22° C 99% 1016.7 hPa 0 mm - 0 W/m² -

* Rain latest hour (hover to see other rain measurements)
** Current wind speed in m/s (hover to see current wind gust speed)